BOV620 SLLP-SLCB

Flight info

Callsign BOV620
Flight time 0h 36m
Altitude 29000
Route DAKOG UW677 TEDOK
Aircraft B738/M-SDE2E3FGHIRWXY/LB1

Departure

Time 2026-04-23 19:27
Airport El Alto International Airport (SLLP)

Arrival

Time 2026-04-23 20:04
Airport Jorge Wilsterman International Airport (SLCB)
Time Latitude Longitude Altitude Speed Heading
2026-04-23 18:56 -16.50989 -68.17874 13321 ft 0 kts
2026-04-23 19:16 -16.50991 -68.17874 13321 ft 2 kts
2026-04-23 19:16 -16.51008 -68.17875 13321 ft 2 kts
2026-04-23 19:16 -16.51024 -68.17875 13321 ft 2 kts
2026-04-23 19:17 -16.51053 -68.17884 13321 ft 2 kts 69°
2026-04-23 19:17 -16.51054 -68.17890 13321 ft 0 kts 97°
2026-04-23 19:19 -16.51054 -68.17889 13321 ft 0 kts 97°
2026-04-23 19:20 -16.51058 -68.17842 13321 ft 6 kts 92°
2026-04-23 19:20 -16.51059 -68.17797 13321 ft 6 kts 92°
2026-04-23 19:20 -16.51061 -68.17754 13321 ft 6 kts 92°
2026-04-23 19:20 -16.51062 -68.17711 13321 ft 6 kts 92°
2026-04-23 19:21 -16.51064 -68.17666 13321 ft 7 kts 95°
2026-04-23 19:21 -16.51104 -68.17582 13321 ft 6 kts 128°
2026-04-23 19:21 -16.51133 -68.17548 13321 ft 6 kts 135°
2026-04-23 19:22 -16.51169 -68.17512 13321 ft 8 kts 136°
2026-04-23 19:22 -16.51211 -68.17472 13321 ft 8 kts 139°
2026-04-23 19:22 -16.51291 -68.17399 13321 ft 7 kts 149°
2026-04-23 19:23 -16.51318 -68.17390 13321 ft 0 kts 174°
2026-04-23 19:24 -16.51320 -68.17390 13321 ft 1 kts 174°
2026-04-23 19:25 -16.51369 -68.17389 13321 ft 4 kts 189°
2026-04-23 19:25 -16.51392 -68.17416 13321 ft 0 kts 274°
2026-04-23 19:26 -16.51387 -68.17539 13321 ft 24 kts 271°
2026-04-23 19:26 -16.51376 -68.17910 13321 ft 77 kts 273°
2026-04-23 19:27 -16.51319 -68.19676 13322 ft 164 kts 271°
2026-04-23 19:27 -16.51162 -68.23959 14462 ft 204 kts 273°
2026-04-23 19:28 -16.50957 -68.26890 15572 ft 213 kts 271°
2026-04-23 19:28 -16.50993 -68.30234 16018 ft 250 kts 262°
2026-04-23 19:29 -16.51596 -68.31984 16178 ft 269 kts 237°
2026-04-23 19:29 -16.54907 -68.34145 16654 ft 308 kts 186°
2026-04-23 19:30 -16.58926 -68.32459 17309 ft 344 kts 132°
2026-04-23 19:30 -16.60173 -68.30273 17544 ft 362 kts 112°
2026-04-23 19:30 -16.61817 -68.25095 18277 ft 384 kts 111°
2026-04-23 19:31 -16.62818 -68.22494 18862 ft 388 kts 114°
2026-04-23 19:31 -16.63941 -68.19923 19440 ft 391 kts 116°
2026-04-23 19:31 -16.65130 -68.17358 19987 ft 394 kts 116°
2026-04-23 19:31 -16.66330 -68.14772 20535 ft 397 kts 116°
2026-04-23 19:32 -16.67538 -68.12173 21125 ft 398 kts 116°
2026-04-23 19:32 -16.68789 -68.09584 21742 ft 401 kts 116°
2026-04-23 19:32 -16.69991 -68.06926 22128 ft 408 kts 116°
2026-04-23 19:32 -16.71220 -68.04291 22594 ft 410 kts 116°
2026-04-23 19:33 -16.72481 -68.01608 23066 ft 413 kts 117°
2026-04-23 19:33 -16.73746 -67.98906 23527 ft 416 kts 115°
2026-04-23 19:33 -16.75636 -67.93138 24367 ft 423 kts 105°
2026-04-23 19:34 -16.76365 -67.90157 24785 ft 426 kts 104°
2026-04-23 19:34 -16.77096 -67.87143 25189 ft 429 kts 105°
2026-04-23 19:34 -16.78583 -67.81089 26025 ft 432 kts 105°
2026-04-23 19:35 -16.79330 -67.78059 26548 ft 430 kts 105°
2026-04-23 19:35 -16.80080 -67.75027 27061 ft 429 kts 105°
2026-04-23 19:35 -16.80817 -67.72052 27566 ft 428 kts 105°
2026-04-23 19:35 -16.81564 -67.69039 28068 ft 428 kts 105°
2026-04-23 19:36 -16.82330 -67.66024 28244 ft 433 kts 105°
2026-04-23 19:36 -16.83846 -67.59943 28285 ft 430 kts 105°
2026-04-23 19:37 -16.85338 -67.53907 28291 ft 429 kts 105°
2026-04-23 19:37 -16.86824 -67.47871 28291 ft 432 kts 105°
2026-04-23 19:38 -16.88329 -67.41763 28291 ft 439 kts 106°
2026-04-23 19:38 -16.90083 -67.35631 28290 ft 437 kts 113°
2026-04-23 19:39 -16.92530 -67.29912 28288 ft 432 kts 117°
2026-04-23 19:39 -16.95077 -67.24215 28293 ft 435 kts 117°
2026-04-23 19:40 -16.97201 -67.19440 28291 ft 435 kts 117°
2026-04-23 19:40 -16.99751 -67.13685 28291 ft 434 kts 117°
2026-04-23 19:41 -17.02290 -67.07944 28291 ft 435 kts 116°
2026-04-23 19:41 -17.04839 -67.02202 28290 ft 435 kts 117°
2026-04-23 19:42 -17.07402 -66.96451 28290 ft 434 kts 116°
2026-04-23 19:42 -17.09940 -66.90701 28290 ft 436 kts 116°
2026-04-23 19:43 -17.12478 -66.84947 28289 ft 438 kts 116°
2026-04-23 19:43 -17.15033 -66.79140 28289 ft 434 kts 116°
2026-04-23 19:44 -17.17529 -66.73472 28289 ft 425 kts 116°
2026-04-23 19:44 -17.19758 -66.67743 27973 ft 422 kts 113°
2026-04-23 19:44 -17.20810 -66.64903 27602 ft 417 kts 113°
2026-04-23 19:45 -17.21859 -66.62081 27155 ft 415 kts 113°
2026-04-23 19:45 -17.22906 -66.59283 26713 ft 413 kts 113°
2026-04-23 19:45 -17.23942 -66.56524 26276 ft 411 kts 114°
2026-04-23 19:45 -17.24985 -66.53748 25834 ft 408 kts 114°
2026-04-23 19:46 -17.26019 -66.50987 25394 ft 406 kts 113°
2026-04-23 19:46 -17.27049 -66.48240 24953 ft 404 kts 113°
2026-04-23 19:46 -17.28073 -66.45510 24516 ft 402 kts 114°
2026-04-23 19:46 -17.29098 -66.42788 24075 ft 400 kts 114°
2026-04-23 19:47 -17.30112 -66.40085 23638 ft 398 kts 114°
2026-04-23 19:47 -17.31131 -66.37403 23228 ft 397 kts 113°
2026-04-23 19:47 -17.32134 -66.34693 22755 ft 399 kts 113°
2026-04-23 19:47 -17.33133 -66.32022 22251 ft 387 kts 114°
2026-04-23 19:48 -17.34106 -66.29461 21891 ft 368 kts 114°
2026-04-23 19:48 -17.35031 -66.27020 21439 ft 355 kts 114°
2026-04-23 19:48 -17.35926 -66.24654 20880 ft 356 kts 114°
2026-04-23 19:48 -17.36832 -66.22243 20536 ft 354 kts 114°
2026-04-23 19:49 -17.37729 -66.19854 20273 ft 350 kts 114°
2026-04-23 19:49 -17.38617 -66.17490 19936 ft 344 kts 114°
2026-04-23 19:49 -17.39471 -66.15207 19696 ft 325 kts 114°
2026-04-23 19:49 -17.40271 -66.13080 19560 ft 305 kts 114°
2026-04-23 19:50 -17.41029 -66.11078 19444 ft 285 kts 114°
2026-04-23 19:50 -17.41732 -66.09212 19296 ft 267 kts 115°
2026-04-23 19:50 -17.42398 -66.07438 19021 ft 260 kts 114°
2026-04-23 19:50 -17.43056 -66.05680 18721 ft 258 kts 114°
2026-04-23 19:51 -17.43708 -66.03932 18426 ft 257 kts 114°
2026-04-23 19:51 -17.44355 -66.02202 18138 ft 255 kts 114°
2026-04-23 19:51 -17.45000 -66.00471 17820 ft 255 kts 114°
2026-04-23 19:51 -17.45644 -65.98744 17522 ft 253 kts 114°
2026-04-23 19:52 -17.46282 -65.97028 17235 ft 252 kts 114°
2026-04-23 19:52 -17.46915 -65.95328 17044 ft 249 kts 115°
2026-04-23 19:52 -17.47532 -65.93672 17002 ft 247 kts 115°
2026-04-23 19:52 -17.48163 -65.91977 17009 ft 254 kts 114°
2026-04-23 19:53 -17.48815 -65.90226 17020 ft 260 kts 114°
2026-04-23 19:53 -17.49474 -65.88456 17010 ft 258 kts 115°
2026-04-23 19:53 -17.50113 -65.86735 17005 ft 250 kts 114°
2026-04-23 19:53 -17.50736 -65.85064 16998 ft 243 kts 115°
2026-04-23 19:54 -17.51549 -65.83564 16948 ft 232 kts 140°
2026-04-23 19:54 -17.52928 -65.82883 16852 ft 217 kts 178°
2026-04-23 19:54 -17.54354 -65.83262 16504 ft 216 kts 217°
2026-04-23 19:54 -17.55185 -65.84546 16198 ft 219 kts 256°
2026-04-23 19:55 -17.55285 -65.86132 15910 ft 215 kts 265°
2026-04-23 19:55 -17.55464 -65.87639 15606 ft 208 kts 256°
2026-04-23 19:55 -17.55876 -65.89080 15319 ft 208 kts 247°
2026-04-23 19:55 -17.56493 -65.90447 15027 ft 208 kts 242°
2026-04-23 19:56 -17.57186 -65.91781 14717 ft 204 kts 240°
2026-04-23 19:56 -17.57858 -65.93067 14433 ft 202 kts 241°
2026-04-23 19:56 -17.58532 -65.94372 14142 ft 207 kts 241°
2026-04-23 19:56 -17.59224 -65.95713 13844 ft 209 kts 242°
2026-04-23 19:57 -17.59606 -65.97162 13505 ft 209 kts 273°
2026-04-23 19:57 -17.59036 -65.98546 13212 ft 210 kts 305°
2026-04-23 19:57 -17.58036 -65.99661 12925 ft 211 kts 314°
2026-04-23 19:57 -17.56960 -66.00706 12612 ft 210 kts 313°
2026-04-23 19:58 -17.55921 -66.01778 12305 ft 209 kts 311°
2026-04-23 19:58 -17.55057 -66.02726 12060 ft 205 kts 309°
2026-04-23 19:58 -17.54301 -66.03579 11820 ft 204 kts 309°
2026-04-23 19:59 -17.53879 -66.04060 11687 ft 203 kts 309°
2026-04-23 20:00 -17.53524 -66.04468 11572 ft 200 kts 308°
2026-04-23 20:00 -17.52616 -66.05515 11276 ft 193 kts 308°
2026-04-23 20:00 -17.51734 -66.06544 11010 ft 187 kts 309°
2026-04-23 20:00 -17.50884 -66.07531 10775 ft 178 kts 310°
2026-04-23 20:01 -17.50068 -66.08478 10519 ft 171 kts 310°
2026-04-23 20:01 -17.49279 -66.09394 10291 ft 169 kts 310°
2026-04-23 20:01 -17.48485 -66.10315 10067 ft 171 kts 310°
2026-04-23 20:01 -17.47682 -66.11248 9834 ft 172 kts 310°
2026-04-23 20:02 -17.46880 -66.12180 9598 ft 173 kts 310°
2026-04-23 20:02 -17.46071 -66.13119 9362 ft 174 kts 310°
2026-04-23 20:02 -17.45274 -66.14046 9126 ft 172 kts 310°
2026-04-23 20:02 -17.44475 -66.14973 8880 ft 170 kts 310°
2026-04-23 20:03 -17.43677 -66.15900 8605 ft 170 kts 311°
2026-04-23 20:03 -17.42883 -66.16812 8376 ft 167 kts 311°
2026-04-23 20:03 -17.42177 -66.17636 8369 ft 127 kts 310°
2026-04-23 20:03 -17.41732 -66.18156 8368 ft 67 kts 312°
2026-04-23 20:04 -17.41529 -66.18392 8368 ft 27 kts 311°
2026-04-23 20:04 -17.41459 -66.18470 8368 ft 5 kts 314°
2026-04-23 20:04 -17.41455 -66.18474 8368 ft 0 kts 314°
2026-04-23 20:04 -17.41417 -66.18506 8368 ft 15 kts 333°
2026-04-23 20:05 -17.41405 -66.18521 8368 ft 7 kts 142°
2026-04-23 20:05 -17.41482 -66.18445 8368 ft 23 kts 133°
2026-04-23 20:05 -17.41608 -66.18297 8368 ft 25 kts 131°
2026-04-23 20:05 -17.41609 -66.18196 8368 ft 15 kts 44°
2026-04-23 20:06 -17.41537 -66.18122 8368 ft 14 kts 44°
2026-04-23 20:06 -17.41470 -66.18055 8368 ft 12 kts 44°
2026-04-23 20:06 -17.41424 -66.18008 8368 ft 7 kts 44°
2026-04-23 20:06 -17.41416 -66.18000 8368 ft 0 kts 44°